sat.trackr.live / text

‹ back to catalog

ONEWEB-0136

NORAD 47282 · 2020-100AA

PAYLOAD ACTIVE UNKNOWN

§ Identity

Operator
Country
UK
Launch date
2020-12-18
Launch site
VOSTO
Launch vehicle
Mass (kg)
RCS (m²)

Purposes: comms

External: N2YO · Heavens-Above · Gunter

§ Orbital elements

Epoch: 2026-05-25T02:12:02.981088Z

Period
109.72 min
Inclination
87.8960°
Eccentricity
0.0001482
Mean motion
13.12443582 rev/d
Perigee alt
1,212.6 km
Apogee alt
1,214.8 km
Semi-major
7,591.9 km
B*
2.0726e-4
RAAN
355.2425°
Arg perigee
82.9828°
Mean anomaly
277.1469°
Rev number
26,163

§ Raw data

ONEWEB-01361 47282U 20100AA  26145.09170117  .00000087  00000+0  20726-3 0  99942 47282  87.8960 355.2425 0001482  82.9828 277.1469 13.12443582261638

JSON: /api/v1/satellites/47282 · /tle

For live sub-satellite position, see the globe view (requires WebGL).

§ Visibility from observer

Set your observer location to see the next 7 days of passes ≥ 10°. The values pass through the URL so the page stays shareable.

No JS? Fill the form by hand. The geolocation button needs JavaScript.